Location: Casteau
(50.5142°N, 4.0161°E)
Time: 08:54:21
(UTC+00:00)

Lacrosse 5 rocket - Pass Details

Date: 18 September 2020
Orbit: 460 x 636 km, 57.0° (Epoch: 24 October)

Event Time Altitude Azimuth Distance (km) Brightness Sun altitude
Rises 21:25:36 0° 294° (WNW) 2,832 5.9 -30.9°
Reaches altitude 10° 21:27:57 10° 302° (WNW) 1,954 4.9 -31.1°
Enters shadow 21:30:45 31° 330° (NNW) 1,078 3.2 -31.4°
